Probability
0 0 0 0 0 0 0 0 0 0 0 0 0 0 0 0 0 0 0 0 0 0 0 0 0 0 0 0 0 0 0 0 0 0 0 0 0 0 0 0 0 0 0 0
0 0 0 0 0 0 0 0 0 0 0 0 0 0 0 0 0 0 0 0 0 0 0 0 0 0 0 0 0 0 0 0 0 0 0 0 0 0 0 0 0 0 0 0
0 0 0 0 0 0 0 0 0 0 0 0 0 0 0 0 0 0 0 0 0 0 0 0 0 0 0 0 0 0 0 0 0 0 0 0 0 0 0 0 0 0 0 0
0 0 0 0 0 0 0 0 0 0 0 0 0 0 0 0 0 0 0 0 0 0 0 0 0 0 0 0 0 0 0 0 0 0 0 0 0 0 0 0 0 0 0 0
0 0 0 0 0 0 0 0 0 0 0 0 0 0 0 0 0 0 0 0 0 0 0 0 0 0 0 0 0 0 0 0 0 0 0 0 0 0 0 0 0 0 0 0
0 0 0 0 0 0 0 0 0 0 0 0 0 0 0 0 0 0 0 0 0 0 0 0 0 0 0 0 0 0 0 0 0 0 0 0 0 0 0 0 0 0 0 0
0 0 0 0 0 0 0 0 0 0 0 0 0 0 0 0 0 0 0 0 0 0 0 0 0 0 0 0 0 0 0 0 0 0 0 0 0 0 0 0 0 0 0 0
0 0 0 0 0 0 0 0 0 0 0 0 0 0 0 0 0 0 0 0 0 0 0 0 0 0 0 0 0 0 0 0 0 0 0 0 0 0 0 0 0 0 0 0
0 0 0 0 0 0 0 0 0 0 0 0 0 0 0 0 0 0 0 0 0 0 0 0 0 0 0 0 0 0 0 0 0 0 0 0 0 0 0 0 0 0 0 0
0 0 0 0 0 0 0 0 0 0 0 0 0 0 0 0 0 0 0 0 0 0 0 0 0 0 0 0 0 0 0 0 0 0 0 0 0 0 0 0 0 0 0 0
0 0 0 0 0 0 0 0 0 0 0 0 0 0 0 0 0 0 0 0 0 0 0 0 0 0 0 0 0 0 0 0 0 0 0 0 0 0 0 0 0 0 0 0
0 0 0 0 0 0 0 0 0 0 0 0 0 0 0 0 0 0 0 0 0 0 0 0 0 0 0 0 0 0 0 0 0 0 0 0 0 0 0 0 0 0 0 0
0 0 0 0 0 0 0 0 0 0 0 0 0 0 0 0 0 0 0 0 0 0 0 0 0 0 0 0 0 0 0 0 0 0 0 0 0 0 0 0 0 0 0 0
0 0 0 0 0 0 0 0 0 0 0 0 0 0 0 0 0 0 0 0 0 0 0 0 0 0 0 0 0 0 0 0 0 0 0 0 0 0 0 0 0 0 0 0
0 0 0 0 0 0 0 0 0 0 0 0 0 0 0 0 0 0 0 0 0 0 0 0 0 0 0 0 0 0 0 0 0 0 0 0 0 0 0 0 0 0 0 0
0 0 0 0 0 0 0 0 0 0 0 0 0 0 0 0 0 0 0 0 0 0 0 0 0 0 0 0 0 0 0 0 0 0 0 0 0 0 0 0 0 0 0 0
0 0 0 0 0 0 0 0 0 0 0 0 0 0 0 0 0 0 0 0 0 0 0 0 0 0 0 0 0 0 0 0 0 0 0 0 0 0 0 0 0 0 0 0
0 0 0 0 0 0 0 0 0 0 0 0 0 0 0 0 0 0 0 0 0 0 0 0 0 0 0 0 0 0 0 0 0 0 0 0 0 0 0 0 0 0 0 0
0 0 0 0 0 0 0 0 0 0 0 0 0 0 0 0 0 0 0 0 0 0 0 0 0 0 0 0 0 0 0 0 0 0 0 0 0 0 0 0 0 0 0 0
0 0 0 0 0 0 0 0 0 0 0 0 0 0 0 0 0 0 0 0 0 0 0 0 0 0 0 0 0 0 0 0 0 0 0 0 0 0 0 0 0 0 0 0
0 0 0 0 0 0 0 0 0 0 0 0 0 0 0 0 0 0 0 0 0 0 0 0 0 0 0 0 0 0 0 0 0 0 0 0 0 0 0 0 0 0 0 0
0 0 0 0 0 0 0 0 0 0 0 0 0 0 0 0 0 0 0 0 0 0 0 0 0 0 0 0 0 0 0 0 0 0 0 0 0 0 0 0 0 0 0 0
0 0 0 0 0 0 0 0 0 0 0 0 0 0 0 0 0 0 0 0 0 0 0 0 0 0 0 0 0 0 0 0 0 0 0 0 0 0 0 0 0 0 0 0
0 0 0 0 0 0 0 0 0 0 0 0 0 0 0 0 0 0 0 0 0 0 0 0 0 0 0 0 0 0 0 0 0 0 0 0 0 0 0 0 0 0 0 0
0 0 0 0 0 0 0 0 0 0 0 0 0 0 0 0 0 0 0 0 0 0 0 0 0 0 0 0 0 0 0 0 0 0 0 0 0 0 0 0 0 0 0 0
0 0 0 0 0 0 0 0 0 0 0 0 0 0 0 0 0 0 0 0 0 0 0 0 0 0 0 0 0 0 0 0 0 0 0 0 0 0 0 0 0 0 0 0
0 0 0 0 0 0 0 0 0 0 0 0 0 0 0 0 0 0 0 0 0 0 0 0 0 0 0 0 0 0 0 0 0 0 0 0 0 0 0 0 0 0 0 0
Wind_Speed
4 3 1 2 3 3 4 5 6 6 7 10 6 5 3 2 1 1 1 1 2 2 2 1 1 1 1 1 1 2 2 2 3 3 3 3 3 2 2 2 2 2 2 2
2 1 1 3 4 4 5 5 6 6 9 7 5 2 1 2 1 1 2 2 2 2 1 2 2 2 1 1 1 2 2 2 2 2 2 2 2 2 2 1 1 2 2 2
3 3 3 5 6 7 5 4 5 8 9 4 3 2 2 2 1 2 3 2 2 2 2 2 2 2 2 2 1 1 2 2 2 2 2 2 2 2 2 2 2 1 1 2
0 3 4 7 1 4 5 5 5 5 5 4 4 4 3 2 2 3 3 2 2 2 2 2 1 1 1 1 1 2 2 2 1 2 2 2 2 1 1 1 2 2 1 2
2 2 7 7 3 3 4 6 5 7 7 5 3 3 4 2 2 3 3 2 2 2 2 1 1 1 1 1 1 1 1 1 1 2 2 2 2 2 1 1 1 2 2 2
3 3 7 6 2 1 2 6 4 4 5 3 1 1 5 3 1 2 1 1 1 1 0 1 1 1 2 1 1 1 1 1 1 2 2 2 2 2 1 2 2 1 1 1
4 5 9 6 2 2 4 8 3 2 3 2 3 5 4 2 2 1 1 1 0 0 0 1 0 1 1 1 1 1 0 1 1 1 1 2 2 1 2 2 1 1 1 0
5 5 10 4 4 7 7 2 1 1 2 2 3 3 3 2 2 1 1 1 1 1 1 1 0 1 1 1 1 1 1 0 0 0 1 1 2 1 1 2 2 2 1 0
10 10 4 5 6 4 2 2 2 2 2 2 2 3 3 2 2 1 1 1 1 1 1 2 1 1 1 1 1 1 1 1 1 0 1 1 2 2 2 2 2 2 2 1
5 8 6 5 4 4 3 4 4 3 3 2 3 4 3 3 2 2 1 1 0 0 1 2 2 1 1 1 1 1 1 1 1 1 1 1 1 2 2 2 2 2 2 2
6 6 4 5 7 6 5 4 3 3 3 3 4 4 3 3 3 2 2 1 1 1 1 1 2 1 1 0 0 1 1 1 1 1 1 1 0 1 2 2 3 3 3 3
9 7 6 6 5 4 4 5 4 3 3 3 4 4 3 3 3 2 2 1 1 1 1 1 1 1 1 1 0 1 1 1 1 1 1 1 1 1 1 0 0 1 2 2
7 4 5 5 4 4 4 5 4 4 4 4 3 3 3 3 2 1 1 2 2 2 2 1 1 1 2 1 0 1 1 1 1 1 1 1 1 1 1 2 2 1 1 1
4 2 3 4 4 3 3 3 2 2 2 3 3 2 2 2 1 1 2 2 2 1 1 1 1 2 2 1 0 1 1 1 1 1 1 1 1 1 1 1 1 1 1 1
6 5 5 3 2 1 1 1 1 2 2 2 2 2 2 2 2 2 2 2 1 1 1 1 2 3 2 1 0 1 1 1 1 1 1 1 1 1 1 1 1 0 1 1
3 2 2 3 3 2 2 2 3 3 2 2 2 3 3 3 2 2 2 1 1 2 2 2 2 3 2 0 0 0 0 1 1 1 1 1 1 1 1 1 1 1 0 0
3 3 3 3 4 3 3 4 4 3 3 3 4 3 2 2 1 1 2 1 2 2 2 2 3 2 1 1 1 1 0 1 1 1 1 1 1 1 1 1 1 1 0 1
5 5 5 5 5 4 4 3 3 3 4 3 2 2 2 3 3 3 2 1 1 1 2 2 2 1 1 1 1 1 1 1 1 1 1 0 1 1 1 1 1 1 0 0
3 3 4 4 4 4 4 4 4 3 3 2 3 3 3 3 3 2 2 1 1 2 2 2 2 1 0 1 0 1 1 1 1 1 1 1 1 1 1 1 0 0 0 0
2 2 2 2 2 3 3 3 3 3 3 3 3 3 3 3 3 2 2 2 3 3 2 2 1 1 1 1 1 1 1 1 1 1 1 1 1 1 1 1 0 0 0 0
2 2 2 2 2 2 2 3 3 3 3 3 3 4 3 3 2 2 2 2 2 2 2 2 1 1 1 1 1 1 1 1 1 1 1 1 1 1 0 0 0 0 0 0
2 2 2 2 2 2 2 2 2 3 2 2 3 3 3 2 2 2 3 3 3 3 1 1 1 1 1 1 1 1 1 1 1 1 1 1 1 1 1 1 0 0 0 0
3 3 3 3 3 2 2 2 2 3 3 3 4 4 4 3 3 3 2 2 2 3 2 1 2 2 2 1 1 1 1 1 1 1 1 1 1 1 1 1 1 1 1 1
3 3 3 2 2 2 2 3 2 2 2 3 3 3 3 2 2 2 2 3 4 3 1 2 2 2 2 1 1 1 1 1 1 1 1 1 1 1 1 1 1 1 1 1
3 3 2 3 3 3 3 2 1 1 1 1 2 2 2 2 3 2 2 2 4 2 1 2 2 2 1 1 1 1 1 1 1 1 1 1 1 1 1 1 1 1 1 1
3 3 3 3 3 2 2 2 2 2 2 1 1 1 1 1 1 1 1 2 2 2 1 1 1 1 1 1 1 1 1 1 1 1 1 1 1 1 1 1 1 1 1 1
2 2 2 2 2 3 3 3 3 3 3 2 2 1 1 1 1 1 1 1 1 1 1 0 0 1 1 1 1 1 1 1 1 1 1 1 1 1 1 1 1 1 1 1
Wind_Direction
254 266 230 236 249 213 203 210 213 245 248 269 283 276 266 253 241 185 217 223 212 210 200 199 199 211 211 200 194 183 175 187 190 181 167 162 161 180 180 178 191 192 181 185
296 280 258 290 272 232 232 242 246 264 274 277 300 318 303 274 232 251 251 253 249 244 222 208 204 210 203 205 204 176 180 205 187 166 159 164 170 174 163 175 187 182 193 189
280 315 11 281 247 213 213 217 205 235 255 290 311 298 267 243 247 251 254 251 243 246 244 242 235 211 199 202 189 168 188 195 176 158 158 167 166 167 172 185 181 183 211 194
316 28 239 243 236 203 214 240 222 247 272 272 261 274 282 241 219 249 262 266 262 254 261 267 260 236 184 173 172 181 190 181 167 165 178 178 163 178 185 176 185 194 212 194
143 239 276 288 251 184 201 266 235 239 266 286 305 349 314 283 223 238 245 247 243 247 251 256 246 213 164 160 162 184 180 175 189 187 189 183 181 199 194 175 192 203 205 184
147 187 241 256 258 213 121 284 255 220 246 271 52 309 279 303 308 285 280 270 257 268 286 239 241 165 152 171 176 191 194 219 220 205 195 195 192 200 195 185 197 203 195 181
187 222 261 257 256 122 166 252 263 211 226 215 207 231 274 310 315 293 272 292 100 96 295 266 240 134 147 171 205 218 209 216 226 221 209 196 177 187 182 169 160 172 155 190
173 204 251 216 151 190 222 251 214 217 228 235 248 280 297 297 295 306 324 349 12 19 323 312 217 142 143 199 206 149 142 167 235 196 202 190 158 169 175 160 162 165 155 177
194 214 240 193 208 231 212 218 227 222 233 229 253 273 287 289 284 276 255 309 346 7 329 325 318 154 158 242 187 142 141 162 192 212 199 200 173 172 172 172 175 183 184 188
242 255 251 244 254 261 232 227 233 225 223 217 241 263 276 278 274 272 262 260 292 19 321 325 333 352 199 220 163 143 156 171 176 162 176 190 195 185 187 191 181 190 193 190
253 271 288 261 238 242 246 242 238 240 229 223 225 248 249 260 257 254 267 276 265 237 247 293 315 336 321 292 152 147 148 157 163 165 166 170 210 224 225 223 204 197 195 189
229 224 211 241 232 217 219 229 228 229 245 243 220 233 244 252 251 243 254 267 279 278 273 286 301 307 306 298 225 148 137 137 154 165 165 163 151 78 26 238 257 233 212 206
231 231 222 251 241 213 214 228 234 227 227 242 238 224 224 237 248 242 254 259 255 266 273 281 296 289 286 281 262 170 176 191 176 167 166 164 158 141 106 55 63 79 115 132
231 218 251 245 240 230 224 232 237 244 240 227 226 225 213 223 242 239 249 259 254 260 275 278 286 284 284 282 212 176 184 209 192 162 166 178 174 162 156 146 94 33 34 58
232 223 229 244 243 239 217 188 197 240 248 250 220 211 206 206 227 246 258 268 254 256 270 276 283 287 293 279 177 181 184 176 163 154 154 161 149 138 139 140 135 102 40 42
230 226 214 212 220 223 204 200 211 232 236 229 222 221 217 208 220 247 259 234 199 241 261 270 282 289 295 266 162 184 191 190 161 139 134 144 143 141 137 134 136 140 149 294
179 212 215 224 228 230 225 221 216 224 225 225 228 220 208 186 202 245 261 256 234 246 253 259 273 289 289 258 197 197 175 161 145 109 135 155 145 144 145 147 155 155 248 266
207 208 206 204 211 221 230 227 220 220 220 223 212 192 194 198 209 227 245 267 306 312 287 271 278 291 269 248 202 171 159 144 135 139 137 135 122 131 127 134 152 154 129 64
201 199 203 205 203 205 217 222 221 218 217 209 200 204 211 213 213 219 217 208 224 272 287 286 290 322 278 256 192 131 129 131 127 132 137 151 106 102 116 119 108 75 81 62
198 200 199 205 201 202 218 223 215 214 214 199 195 199 206 213 205 202 200 221 233 241 254 267 268 265 258 240 112 117 136 148 150 147 142 140 136 124 119 118 121 130 118 122
205 204 203 208 222 227 218 210 203 217 219 198 196 205 212 218 206 196 198 242 265 256 246 252 254 235 226 196 138 126 145 158 162 162 163 158 145 135 139 141 154 176 186 176
209 205 214 218 218 241 242 216 205 207 210 212 212 202 196 208 211 218 227 231 238 246 244 238 237 208 196 171 135 136 149 159 160 158 167 170 168 176 193 194 199 207 196 199
216 214 214 217 218 227 241 227 211 204 209 214 212 206 205 211 206 204 241 247 236 236 233 231 229 206 191 146 140 153 161 167 172 178 193 197 194 198 208 217 224 218 214 218
215 216 217 211 188 194 227 238 227 219 218 226 224 213 201 202 230 229 225 228 234 239 229 224 217 205 174 132 145 151 161 176 185 186 198 199 194 202 216 221 226 235 229 227
208 207 199 187 198 219 225 220 218 221 212 227 238 228 214 203 209 221 222 217 214 214 220 221 216 203 148 132 151 163 177 188 187 183 198 200 203 210 221 222 224 228 227 226
207 211 215 215 215 214 205 198 206 212 202 220 249 238 215 198 194 203 210 212 210 202 204 226 214 186 148 153 165 178 190 215 222 203 195 200 206 210 217 217 215 219 218 220
201 208 207 221 222 208 202 202 205 212 208 205 226 235 211 191 178 177 185 190 190 188 180 169 150 152 157 164 178 189 189 193 195 193 191 196 203 208 202 201 212 213 205 194